Regional Weather Roundup
Issued by NWS

Home | Current Version | Previous Version | Text Only | Print | Product List | Glossary On
Versions: 1 2 3 4 5 6 7 8 9 10 11 12 13 14 15 16 17 18 19 20 21 22 23 24 25 26 27 28 29 30 31 32 33 34 35 36 37 38 39 40 41 42 43 44 45 46 47 48 49 50
000
ASUS43 KDMX 182206
RWRIA

WEATHER ROUNDUP FOR IOWA
NATIONAL WEATHER SERVICE DES MOINES IA
400 PM CST SUN FEB 18 2018

NOTE: "FAIR" INDICATES FEW OR NO CLOUDS BELOW 12,000 FEET WITH NO
SIGNIFICANT WEATHER AND/OR OBSTRUCTIONS TO VISIBILITY.

* - THESE STATIONS ARE NOT NWS STATIONS...THUS NOT UNDER NWS
QUALITY CONTROL.  THEY ALSO DO NOT REPORT WEATHER SUCH
AS PRECIPITATION OR FOG.

IAZ001>003-012>014-020>022-031>034-043>046-182300-
   NORTHWEST IOWA

CITY           SKY/WX    TMP DP  RH WIND       PRES   REMARKS
CARROLL *      CLOUDY    50  32  50 SW13G21   29.62R
CHEROKEE *     MOSUNNY   50  33  51 S14       29.56F
DENISON *      CLOUDY    50  32  50 S17       29.60R
LE MARS *      MOSUNNY   45  34  65 S10       29.54F
ORANGE CITY *  SUNNY     41  36  81 S7        29.55S
SHELDON *      CLOUDY    43  34  70 S10       29.54R
SIOUX CITY     SUNNY     48  36  63 S6        29.55F
SPENCER        SUNNY     42  33  70 S9        29.57F
STORM LAKE *   CLOUDY    45  34  65 S10       29.58R
$$

IAZ055>058-069>071-079>083-090>094-182300-
   SOUTHWEST IOWA

CITY           SKY/WX    TMP DP  RH WIND       PRES   REMARKS
ATLANTIC *     CLOUDY    52  28  40 S16G28    29.62R
AUDUBON *      CLOUDY    52  27  37 S13G22    29.62R
CLARINDA *     MOSUNNY   54  28  37 S22G32    29.64F
COUNCIL BLFS * CLOUDY    54  34  47 S17G31    29.58S
CRESTON *      CLOUDY    52  27  37 S32G45    29.60F
HARLAN  *      CLOUDY    52  30  43 S8G22     29.63S
LAMONI         MOSUNNY   54  26  34 S23G32    29.67F
RED OAK *      MOSUNNY   54  28  37 S28G33    29.62S
SHENANDOAH *   SUNNY     54  30  40 S17G25    29.63S
$$

IAZ047>049-059>061-072>074-084-182300-
   CENTRAL IOWA

CITY           SKY/WX    TMP DP  RH WIND       PRES   REMARKS
AMES           MOSUNNY   49  28  44 S20G30    29.64F
ANKENY *       SUNNY     50  28  43 S20G26    29.64F
BOONE *        CLOUDY    48  30  49 S12G21    29.63R
CHARITON *     SUNNY     54  27  35 S29G44    29.66F
DES MOINES     PTSUNNY   53  29  39 S17G30    29.65F
GRINNELL*      MOSUNNY   46  29  52 S21       29.72F
KNOXVILLE *    CLOUDY    52  27  37 S25G32    29.67F
MARSHALLTOWN   CLOUDY    48  30  49 S17       29.68F
NEWTON *       MOSUNNY   48  30  49 S21       29.68F
PELLA *        MOSUNNY   53  28  37 S22G33    29.71F
PERRY *        FAIR      47  30  50 S9        29.64R
$$

IAZ004>006-015-016-023>025-035-036-182300-
   NORTH CENTRAL IOWA

CITY           SKY/WX    TMP DP  RH WIND       PRES   REMARKS
ALGONA *       MOSUNNY   43 N/A N/A S15       29.61F
CLARION *      CLOUDY    39  37  93 S10       29.66S WCI  32
ESTHERVILLE    SUNNY     38  31  76 S16       29.57F WCI  29
FORT DODGE *   CLOUDY    45  30  55 S9        29.65R
MASON CITY     CLOUDY    42  31  64 S10       29.67F
FOREST CITY *  FAIR      43  32  65 S15       29.63F
WEBSTER CITY * CLOUDY    43  30  61 S12       29.63R
IOWA FALLS *   FAIR      44  30  57 S14       29.66S
$$

IAZ007>011-017>019-026>030-037>042-050>054-066-182300-
   NORTHEAST IOWA

CITY           SKY/WX    TMP DP  RH WIND       PRES   REMARKS
CEDAR RAPIDS   FAIR      45  31  58 S18G30    29.77F
CHARLES CITY * PTSUNNY   41  32  70 S17G23    29.70R
CLINTON *        N/A     39  31  72 SE23      29.90F WCI  28
DECORAH *      FAIR      39  28  65 S18G28    29.71S WCI  30
DUBUQUE        FAIR      36  28  73 S24       29.83F WCI  24
MONTICELLO *   FAIR      39  30  70 SE17G25   29.82F WCI  30
OELWEIN *      MIX PCPN  37  36  93 SE25      29.72F WCI  26
WATERLOO       FAIR      41  30  65 S24G36    29.69F
$$

IAZ064-065-067-068-078-182300-
   EAST CENTRAL IOWA

CITY           SKY/WX    TMP DP  RH WIND       PRES   REMARKS
DAVENPORT      FAIR      43  30  60 S23G38    29.90F
IOWA CITY      FAIR      45  29  53 SE20G26   29.82F
MT. PLEASANT * SUNNY     50  30  46 S22G29    29.83F
MUSCATINE *    FAIR      46  30  53 SE14      29.86F
QUAD CITIES    FAIR      44  32  62 SE15G23   29.89F
$$

IAZ062-063-075>077-085>089-095>099-182300-
   SOUTHEAST IOWA

CITY           SKY/WX    TMP DP  RH WIND       PRES   REMARKS
BURLINGTON     MOSUNNY   50  28  42 S22G29    29.85F
FAIRFIELD *    MOSUNNY   50  27  40 S23G31    29.78F
FORT MADISON * MOSUNNY   50  30  46 S14G24    29.86F
KEOKUK *       MOSUNNY   52  28  40 S21G30    29.84F
OSKALOOSA *    FAIR      47  30  51 S21G29    29.74F
OTTUMWA        MOSUNNY   52  27  38 S24G33    29.75F
WASHINGTON *   CLOUDY    48  30  49 S22G38    29.81F
$$

ABBREVIATIONS USED IN REMARKS
   TC - TEMPERATURES IN CELSIUS
  WCI - WIND CHILL INDEX
   HX - HEAT INDEX
  VSB - VISIBILITY
$$




USA.gov is the U.S. government's official web portal to all federal, state and local government web resources and services.